User: anonymous   Login
Location: Street
(51.1247°N, 2.7429°W)
Time: 13:09:25
(UTC+01:00)
Language:

Transit 2A Rocket - Orbit

View from above orbital plane
View from above orbital plane
View from above satellite
View from above satellite

Ground track
Ground track

The orbit data is extracted from the following two-line orbital elements,

1 00047U 60007C   21131.87638062 -.00000015  00000-0  21683-4 0  9993
2 00047  66.6672 356.8165 0220854  62.0437 300.2830 14.42149955182037
Epoch (UTC): 11 May 2021 21:01:59
Eccentricity: 0.0220854
inclination: 66.6672°
perigee height: 594 km
apogee height: 909 km
right ascension of ascending node: 356.8165°
argument of perigee: 62.0437°
revolutions per day: 14.42149955
mean anomaly at epoch: 300.2830°
orbit number at epoch: 18203

The dashed part of the orbit path shows where the satellite is in the earth's shadow,  

DLR